Weather History for Dallas Addison, TX

Change the Weather History Date:

Tuesday, March 5, 2013

  Actual Average Record
Temperature  
Mean Temperature 48 °F -  
Max Temperature 55 °F 60 °F 82 °F (2009)
Min Temperature 41 °F 43 °F 32 °F (2003)
Degree Days  
Heating Degree Days 16    
Moisture  
Dew Point 24 °F    
Average Humidity 40    
Maximum Humidity 62    
Minimum Humidity 18    
Precipitation  
Precipitation 0.00 in - - ()
Sea Level Pressure  
Sea Level Pressure 30.22 in    
Wind  
Wind Speed 18 mph (NNW)    
Max Wind Speed 26 mph    
Max Gust Speed 45 mph    
Visibility 12 miles    
Events      
Averages and records for this station are not official NWS values.
T = Trace of Precipitation, MM = Missing Value Source: NWS Daily Summary

Daily Weather History Graph

Daily Weather History Graph

Search for Another Location

Airport:

Trip Planner

Search our weather history database for the weather conditions in past years. The results will help you decide how hot, cold, wet, or windy it might be!

Date:

Astronomy

Mar. 05, 2013 Rise Set
Actual Time 6:50 AM CST 6:27 PM CST
Civil Twilight 6:25 AM CST 6:52 PM CST
Nautical Twilight 5:56 AM CST 7:21 PM CST
Astronomical Twilight 5:28 AM CST 7:49 PM CST
Moon 1:49 AM CST (3/5) 12:21 PM CST (3/5)
Length of Visible Light 12h 27m
Length of Day
11h 37m
Last Quarter, 40% of the Moon is Illuminated
Mar 5
Last Quarter
Mar 11
New
Mar 19
First Quarter
Mar 27
Full
Apr 2
Last Quarter

Hourly Weather History & Observations

Time (CST) Temp. Windchill Dew Point Humidity Pressure Visibility Wind Dir Wind Speed Gust Speed Precip Events Conditions
12:35 AM 55.4 °F - 39.2 °F 54% 29.85 in 10.0 mi North 23.0 mph 29.9 mph N/A   Clear
12:55 AM 53.6 °F - 37.4 °F 54% 29.89 in 10.0 mi North 21.9 mph 32.2 mph N/A   Clear
1:15 AM 51.8 °F - 37.4 °F 58% 29.95 in 10.0 mi North 23.0 mph 34.5 mph N/A   Clear
1:35 AM 50.0 °F - 37.4 °F 62% 29.94 in 10.0 mi North 23.0 mph 40.3 mph N/A   Clear
1:55 AM 50.0 °F - 35.6 °F 58% 29.99 in 10.0 mi North 24.2 mph 32.2 mph N/A   Scattered Clouds
2:15 AM 50.0 °F - 35.6 °F 58% 30.01 in 10.0 mi NNW 24.2 mph 33.4 mph N/A   Scattered Clouds
2:35 AM 50.0 °F - 33.8 °F 54% 30.01 in 10.0 mi North 24.2 mph 39.1 mph N/A   Scattered Clouds
2:55 AM 48.2 °F - 32.0 °F 54% 30.01 in 10.0 mi North 26.5 mph 44.9 mph N/A   Clear
3:15 AM 50.0 °F - 32.0 °F 50% 30.07 in 10.0 mi NNW 21.9 mph 35.7 mph N/A   Clear
3:35 AM 50.0 °F - 32.0 °F 50% 30.09 in 10.0 mi North 18.4 mph 24.2 mph N/A   Clear
3:55 AM 50.0 °F - 32.0 °F 50% 30.12 in 10.0 mi North 17.3 mph 31.1 mph N/A   Clear
4:35 AM 48.2 °F - 32.0 °F 54% 30.13 in 10.0 mi North 19.6 mph 26.5 mph N/A   Clear
4:55 AM 46.4 °F 40.1 °F 32.0 °F 57% 30.15 in 10.0 mi North 15.0 mph 26.5 mph N/A   Clear
6:53 AM 44.6 °F 37.4 °F 26.6 °F 49% 30.22 in 15.0 mi NNW 16.1 mph 23.0 mph N/A   Clear
7:59 AM 46.4 °F 40.1 °F 26.6 °F 46% 30.27 in 20.0 mi NNW 15.0 mph 31.1 mph N/A   Clear
8:56 AM 46.4 °F 38.1 °F 24.8 °F 43% 30.29 in 20.0 mi NNW 24.2 mph 33.4 mph N/A   Clear
9:47 AM 48.2 °F - 19.4 °F 32% 30.31 in 20.0 mi NNW 21.9 mph 33.4 mph N/A   Clear
10:47 AM 50.0 °F - 15.8 °F 26% 30.35 in 20.0 mi NNW 21.9 mph 29.9 mph N/A   Clear
11:47 AM 51.8 °F - 15.8 °F 24% 30.35 in 15.0 mi NNW 15.0 mph 27.6 mph N/A   Clear
12:47 PM 51.8 °F - 14.0 °F 22% 30.35 in 13.0 mi NNW 16.1 mph 27.6 mph N/A   Clear
1:47 PM 53.6 °F - 12.2 °F 19% 30.33 in 13.0 mi NNW 18.4 mph 26.5 mph N/A   Clear
2:58 PM 55.4 °F - 12.2 °F 18% 30.31 in 20.0 mi NW 17.3 mph 25.3 mph N/A   Clear
3:47 PM 55.4 °F - 14.0 °F 20% 30.30 in 13.0 mi NNW 17.3 mph 26.5 mph N/A   Clear
5:47 PM 53.6 °F - 12.2 °F 19% 30.31 in 13.0 mi NNW 15.0 mph 21.9 mph N/A   Clear
6:47 PM 51.8 °F - 14.0 °F 22% 30.32 in 13.0 mi NW 9.2 mph 17.3 mph N/A   Clear
7:47 PM 51.8 °F - 15.8 °F 24% 30.33 in 13.0 mi NW 8.1 mph 16.1 mph N/A   Clear
9:15 PM 44.6 °F 40.7 °F 17.6 °F 34% 30.35 in 10.0 mi North 6.9 mph - N/A   Clear
9:35 PM 44.6 °F 42.2 °F 17.6 °F 34% 30.36 in 10.0 mi NNW 4.6 mph - N/A   Clear
9:48 PM 44.6 °F 41.4 °F 17.6 °F 34% 30.37 in 13.0 mi NNW 5.8 mph - N/A   Clear
9:55 PM 44.6 °F 40.7 °F 17.6 °F 34% 30.37 in 10.0 mi NNW 6.9 mph - N/A   Clear
10:15 PM 44.6 °F 41.4 °F 17.6 °F 34% 30.37 in 10.0 mi North 5.8 mph - N/A   Clear
10:35 PM 44.6 °F 42.2 °F 17.6 °F 34% 30.37 in 10.0 mi NNW 4.6 mph - N/A   Clear
10:55 PM 44.6 °F 43.1 °F 19.4 °F 37% 30.37 in 10.0 mi NNW 3.5 mph - N/A   Clear
11:15 PM 42.8 °F 41.1 °F 19.4 °F 39% 30.37 in 10.0 mi North 3.5 mph - N/A   Clear
11:35 PM 42.8 °F 40.1 °F 19.4 °F 39% 30.38 in 10.0 mi North 4.6 mph - N/A   Clear
11:55 PM 41.0 °F 37.1 °F 19.4 °F 42% 30.38 in 10.0 mi North 5.8 mph - N/A   Clear